OK,80,38,768,80,2014-10-01T01:45:00,0,28072538,193026
OK,80,38,768,80,2014-10-01T01:50:00,0,28072987,193026
OK,80,38,768,80,2014-10-01T01:55:00,0,28073434,193026
OK,80,38,768,80,2014-10-01T02:05:00,0,28074200,193026
OK,80,38,768,80,2014-10-01T02:10:00,0,28074648,193026
OK,80,38,768,80,2014-10-01T02:15:00,0,28075089,193026
OK,80,38,768,80,2014-10-01T02:20:00,0,28075538,193026
OK,80,38,768,80,2014-10-01T02:25:00,0,28075987,193026
OK,80,38,768,80,2014-10-01T02:30:00,0,28076370,193026
OK,80,38,768,80,2014-10-01T02:35:00,0,28076819,193026
OK,80,38,768,80,2014-10-01T02:40:00,0,28077268,193026
OK,80,38,768,80,2014-10-01T02:50:00,0,28078120,193026
OK,80,38,768,80,2014-10-01T02:55:00,0,28078569,193026
OK,80,38,768,80,2014-10-01T03:00:00,0,28079014,193026
OK,80,38,768,80,2014-10-01T03:05:00,0,28079462,193026
OK,80,38,768,80,2014-10-01T03:10:00,0,28079905,193026
OK,80,38,768,80,2014-10-01T03:20:00,0,28080688,193026
OK,80,38,768,80,2014-10-01T03:25:00,0,28081137,193026
OK,80,38,768,80,2014-10-01T03:30:00,0,28081585,193026
OK,80,38,768,80,2014-10-01T03:35:00,0,28082033,193026
OK,80,38,768,80,2014-10-01T03:40:00,0,28082482,193026
OK,80,38,768,80,2014-10-01T03:45:00,0,28082915,193026
OK,80,38,768,80,2014-10-01T03:50:00,0,28083347,193026
OK,80,38,768,80,2014-10-01T03:55:00,0,28083796,193026
OK,80,38,768,80,2014-10-01T04:00:00,0,28084245,193026
OK,80,38,768,80,2014-10-01T04:05:00,0,28084686,193026
OK,80,38,768,80,2014-10-01T04:10:00,0,28085111,193026
OK,80,38,768,80,2014-10-01T04:15:00,0,28085560,193026
OK,80,38,768,80,2014-10-01T04:20:00,0,28086005,193026
OK,80,38,768,80,2014-10-01T04:25:00,0,28086454,193026
OK,80,38,768,80,2014-10-01T04:30:00,0,28086896,193026
OK,80,38,768,80,2014-10-01T04:35:00,0,28087345,193026
OK,80,38,768,80,2014-10-01T04:40:00,0,28087790,193026
OK,72,42,768,72,2014-10-01T04:45:00,2,28088239,193026
OK,72,42,768,72,2014-10-01T04:50:00,2,28088663,193026
OK,65,47,768,65,2014-10-01T04:55:00,2,28089112,193026
OK,63,48,768,63,2014-10-01T05:00:00,3,28089542,193026
OK,75,40,768,75,2014-10-01T05:05:00,2,28089991,193026
OK,57,53,768,57,2014-10-01T05:10:00,1,28090440,193026
OK,77,39,768,77,2014-10-01T05:15:00,2,28090784,193026
OK,96,32,768,96,2014-10-01T05:20:00,2,28091233,193026
OK,95,32,768,95,2014-10-01T05:25:00,1,28091682,193026
OK,89,34,768,89,2014-10-01T05:30:00,1,28092099,193026
OK,90,34,768,90,2014-10-01T05:35:00,2,28092548,193026
OK,84,36,768,84,2014-10-01T05:40:00,2,28092992,193026
OK,169,18,768,169,2014-10-01T05:45:00,6,28093433,193026
OK,153,20,768,153,2014-10-01T05:50:00,10,28093864,193026
OK,153,20,768,153,2014-10-01T05:55:00,10,28094312,193026
OK,148,20,768,148,2014-10-01T06:00:00,6,28094724,193026
OK,136,22,768,136,2014-10-01T06:05:00,4,28095169,193026
OK,129,23,768,129,2014-10-01T06:10:00,6,28095616,193026
OK,137,22,768,137,2014-10-01T06:15:00,8,28096065,193026
OK,121,25,768,121,2014-10-01T06:20:00,4,28096478,193026
OK,102,30,768,102,2014-10-01T06:25:00,2,28096927,193026
OK,89,34,768,89,2014-10-01T06:30:00,6,28097361,193026
OK,98,31,768,98,2014-10-01T06:35:00,7,28097810,193026
OK,77,39,768,77,2014-10-01T06:40:00,5,28098259,193026
OK,75,40,768,75,2014-10-01T06:45:00,5,28098696,193026
OK,89,34,768,89,2014-10-01T06:50:00,4,28099140,193026
OK,68,45,768,68,2014-10-01T07:00:00,3,28099931,193026
OK,58,53,768,58,2014-10-01T07:10:00,1,28100687,193026
OK,67,45,768,67,2014-10-01T07:20:00,3,28101507,193026
OK,70,43,768,70,2014-10-01T07:25:00,3,28101956,193026
OK,70,43,768,70,2014-10-01T07:30:00,1,28102392,193026
OK,66,46,768,66,2014-10-01T07:35:00,1,28102841,193026
OK,66,46,768,66,2014-10-01T07:40:00,1,28103268,193026
OK,66,46,768,66,2014-10-01T07:45:00,0,28103715,193026
OK,66,46,768,66,2014-10-01T07:50:00,0,28104160,193026
OK,104,29,768,104,2014-10-01T07:55:00,1,28104605,193026
OK,104,29,768,104,2014-10-01T08:00:00,3,28105046,193026
OK,107,28,768,107,2014-10-01T08:05:00,2,28105491,193026
OK,141,21,768,141,2014-10-01T08:10:00,0,28105931,193026
OK,82,37,768,82,2014-10-01T08:15:00,1,28106380,193026
OK,60,51,768,60,2014-10-01T08:20:00,3,28107207,193026
OK,56,54,768,56,2014-10-01T08:30:00,0,28107655,193026
OK,86,35,768,86,2014-10-01T08:35:00,2,28108104,193026
OK,86,35,768,86,2014-10-01T08:40:00,2,28108543,193026
OK,86,35,768,86,2014-10-01T08:45:00,0,28108992,193026
OK,86,35,768,86,2014-10-01T08:50:00,0,28109420,193026
OK,63,48,768,63,2014-10-01T09:00:00,1,28110212,193026
OK,65,47,768,65,2014-10-01T09:05:00,4,28110661,193026
OK,72,42,768,72,2014-10-01T09:10:00,3,28111084,193026
OK,87,35,768,87,2014-10-01T09:15:00,2,28111533,193026
OK,92,33,768,92,2014-10-01T09:20:00,0,28111962,193026
OK,74,41,768,74,2014-10-01T09:30:00,0,28112752,193026
OK,79,38,768,79,2014-10-01T09:35:00,2,28113201,193026
OK,108,28,768,108,2014-10-01T09:40:00,0,28113625,193026
OK,108,28,768,108,2014-10-01T09:45:00,0,28114074,193026
OK,74,41,768,74,2014-10-01T09:50:00,1,28114506,193026
OK,70,43,768,70,2014-10-01T10:00:00,2,28115309,193026
OK,93,33,768,93,2014-10-01T10:05:00,4,28115758,193026
OK,93,33,768,93,2014-10-01T10:10:00,4,28116170,193026
OK,73,42,768,73,2014-10-01T10:15:00,2,28116619,193026
OK,67,45,768,67,2014-10-01T10:20:00,2,28117027,193026
OK,95,32,768,95,2014-10-01T10:30:00,1,28117901,193026
OK,95,32,768,95,2014-10-01T10:35:00,3,28118350,193026
OK,74,41,768,74,2014-10-01T10:40:00,3,28118795,193026
OK,77,39,768,77,2014-10-01T10:45:00,3,28119242,193026
OK,77,39,768,77,2014-10-01T10:50:00,2,28119686,193026
OK,77,39,768,77,2014-10-01T10:55:00,0,28120134,193026
OK,73,42,768,73,2014-10-01T11:00:00,1,28120582,193026
OK,73,42,768,73,2014-10-01T11:10:00,0,28121414,193026
OK,77,39,768,77,2014-10-01T11:15:00,1,28121863,193026
OK,98,31,768,98,2014-10-01T11:20:00,2,28122301,193026
OK,89,34,768,89,2014-10-01T11:25:00,2,28122750,193026
OK,71,43,768,71,2014-10-01T11:30:00,2,28123191,193026
OK,80,38,768,80,2014-10-01T11:35:00,2,28123640,193026
OK,64,48,768,64,2014-10-01T11:40:00,1,28124072,193026
OK,64,48,768,64,2014-10-01T11:45:00,1,28124520,193026
OK,64,48,768,64,2014-10-01T11:50:00,0,28124923,193026
OK,86,35,768,86,2014-10-01T11:55:00,1,28125372,193026
OK,86,35,768,86,2014-10-01T12:00:00,1,28125801,193026
OK,53,58,768,53,2014-10-01T12:05:00,2,28126602,193026
OK,76,40,768,76,2014-10-01T12:15:00,2,28127051,193026
OK,63,48,768,63,2014-10-01T12:20:00,1,28127500,193026
OK,138,22,768,138,2014-10-01T12:25:00,1,28127947,193026
OK,138,22,768,138,2014-10-01T12:30:00,1,28128377,193026
OK,138,22,768,138,2014-10-01T12:35:00,0,28128826,193026
OK,138,22,768,138,2014-10-01T12:40:00,0,28129261,193026
OK,62,49,768,62,2014-10-01T12:50:00,1,28130144,193026
OK,93,33,768,93,2014-10-01T13:00:00,1,28131021,193026
OK,135,22,768,135,2014-10-01T13:05:00,1,28131469,193026
OK,135,22,768,135,2014-10-01T13:10:00,1,28131907,193026
OK,91,33,768,91,2014-10-01T13:15:00,2,28132354,193026
OK,91,33,768,91,2014-10-01T13:20:00,2,28132793,193026
OK,77,39,768,77,2014-10-01T13:30:00,0,28133679,193026
OK,237,12,768,237,2014-10-01T13:40:00,1,28134567,193026
OK,71,43,768,71,2014-10-01T13:45:00,2,28135435,193026
OK,71,43,768,71,2014-10-01T13:50:00,2,28135876,193026
OK,57,53,768,57,2014-10-01T14:00:00,1,28136321,193026
OK,128,24,768,128,2014-10-01T14:10:00,2,28137210,193026
OK,124,24,768,124,2014-10-01T14:15:00,1,28137653,193026
OK,124,24,768,124,2014-10-01T14:20:00,0,28138093,193026
OK,124,24,768,124,2014-10-01T14:30:00,0,28138970,193026
OK,86,35,768,86,2014-10-01T14:40:00,1,28139830,193026
OK,131,23,768,131,2014-10-01T14:50:00,4,28140721,193026
OK,98,31,768,98,2014-10-01T15:00:00,0,28141596,193026
OK,63,48,768,63,2014-10-01T15:05:00,1,28142040,193026
OK,84,36,768,84,2014-10-01T15:10:00,3,28142473,193026
OK,85,36,768,85,2014-10-01T15:15:00,4,28142922,193026
OK,64,48,768,64,2014-10-01T15:20:00,2,28143349,193026
OK,105,29,768,105,2014-10-01T15:25:00,2,28143798,193026
OK,90,34,768,90,2014-10-01T15:30:00,3,28144246,193026
OK,90,34,768,90,2014-10-01T15:35:00,0,28144694,193026
OK,90,34,768,90,2014-10-01T15:45:00,0,28145530,193026
OK,90,34,768,90,2014-10-01T15:50:00,0,28145979,193026
OK,67,45,768,67,2014-10-01T15:55:00,2,28146428,193026
OK,66,46,768,66,2014-10-01T16:00:00,2,28146877,193026
OK,65,47,768,65,2014-10-01T16:05:00,1,28147285,193026
OK,65,47,768,65,2014-10-01T16:10:00,0,28147729,193026
OK,69,44,768,69,2014-10-01T16:20:00,1,28148579,193026
OK,69,44,768,69,2014-10-01T16:25:00,1,28149028,193026
OK,69,44,768,69,2014-10-01T16:30:00,0,28149467,193026
OK,77,39,768,77,2014-10-01T16:40:00,1,28150342,193026
OK,98,31,768,98,2014-10-01T16:50:00,1,28151209,193026
OK,98,31,768,98,2014-10-01T16:55:00,0,28151658,193026
OK,98,31,768,98,2014-10-01T17:05:00,0,28152107,193026
OK,111,27,768,111,2014-10-01T17:10:00,1,28152556,193026
OK,91,33,768,91,2014-10-01T17:15:00,2,28153002,193026
OK,72,42,768,72,2014-10-01T17:20:00,0,28153449,193026
OK,124,24,768,124,2014-10-01T17:25:00,2,28153898,193026
OK,73,42,768,73,2014-10-01T17:30:00,5,28154308,193026
OK,81,37,768,81,2014-10-01T17:35:00,2,28154757,193026
OK,81,37,768,81,2014-10-01T17:40:00,0,28155199,193026
OK,81,37,768,81,2014-10-01T17:45:00,0,28155646,193026
OK,81,37,768,81,2014-10-01T17:50:00,0,28156065,193026
OK,81,37,768,81,2014-10-01T17:55:00,0,28156514,193026
OK,81,37,768,81,2014-10-01T18:00:00,0,28156962,193026
OK,81,37,768,81,2014-10-01T18:10:00,0,28157830,193026
OK,81,37,768,81,2014-10-01T18:15:00,0,28158279,193026
OK,81,37,768,81,2014-10-01T18:20:00,0,28158723,193026
OK,81,37,768,81,2014-10-01T18:25:00,0,28159168,193026
OK,66,46,768,66,2014-10-01T18:35:00,1,28159950,193026
OK,66,46,768,66,2014-10-01T18:40:00,0,28160399,193026
OK,66,46,768,66,2014-10-01T18:45:00,0,28160848,193026
OK,66,46,768,66,2014-10-01T18:50:00,0,28161286,193026
OK,66,46,768,66,2014-10-01T19:00:00,0,28162152,193026
OK,66,46,768,66,2014-10-01T19:05:00,0,28162601,193026
OK,66,46,768,66,2014-10-01T19:10:00,0,28162995,193026
OK,66,46,768,66,2014-10-01T19:15:00,0,28163434,193026
OK,66,46,768,66,2014-10-01T19:20:00,0,28163882,193026
OK,66,46,768,66,2014-10-01T19:30:00,0,28164762,193026
OK,66,46,768,66,2014-10-01T19:35:00,0,28165208,193026
OK,66,46,768,66,2014-10-01T19:40:00,0,28165636,193026
OK,66,46,768,66,2014-10-01T19:45:00,0,28166445,193026
OK,66,46,768,66,2014-10-01T19:55:00,0,28166887,193026
OK,66,46,768,66,2014-10-01T20:00:00,0,28167750,193026
OK,66,46,768,66,2014-10-01T20:05:00,0,28168198,193026
OK,66,46,768,66,2014-10-01T20:10:00,0,28168643,193026
OK,66,46,768,66,2014-10-01T20:15:00,0,28169092,193026
OK,85,36,768,85,2014-10-01T20:20:00,1,28169540,193026
OK,85,36,768,85,2014-10-01T20:25:00,0,28169973,193026
OK,85,36,768,85,2014-10-01T20:30:00,0,28170411,193026
OK,85,36,768,85,2014-10-01T20:35:00,0,28170859,193026
OK,85,36,768,85,2014-10-01T20:40:00,0,28171297,193026
OK,85,36,768,85,2014-10-01T20:45:00,0,28171742,193026
OK,85,36,768,85,2014-10-01T20:50:00,0,28172190,193026
OK,85,36,768,85,2014-10-01T20:55:00,0,28172636,193026
OK,85,36,768,85,2014-10-01T21:00:00,0,28173082,193026
OK,85,36,768,85,2014-10-01T21:05:00,0,28173531,193026
OK,85,36,768,85,2014-10-01T21:10:00,0,28173972,193026
OK,85,36,768,85,2014-10-01T21:15:00,0,28174421,193026
OK,85,36,768,85,2014-10-01T21:20:00,0,28174847,193026
OK,85,36,768,85,2014-10-01T21:25:00,0,28175243,193026
OK,85,36,768,85,2014-10-01T21:30:00,0,28175692,193026
OK,85,36,768,85,2014-10-01T21:35:00,0,28176141,193026
OK,85,36,768,85,2014-10-01T21:45:00,0,28176590,193026
OK,85,36,768,85,2014-10-01T21:50:00,0,28177386,193026
OK,85,36,768,85,2014-10-01T21:55:00,0,28177832,193026
OK,85,36,768,85,2014-10-01T22:05:00,0,28178281,193026
OK,85,36,768,85,2014-10-01T22:15:00,0,28179173,193026
OK,85,36,768,85,2014-10-01T22:20:00,0,28179608,193026
OK,85,36,768,85,2014-10-01T22:25:00,0,28180052,193026
OK,85,36,768,85,2014-10-01T22:30:00,0,28180899,193026
OK,85,36,768,85,2014-10-01T22:35:00,0,28181323,193026
OK,85,36,768,85,2014-10-01T22:40:00,0,28181771,193026
OK,85,36,768,85,2014-10-01T22:45:00,0,28182218,193026
OK,85,36,768,85,2014-10-01T22:50:00,0,28182667,193026
OK,85,36,768,85,2014-10-01T22:55:00,0,28183084,193026
OK,85,36,768,85,2014-10-01T23:00:00,0,28183517,193026
OK,85,36,768,85,2014-10-01T23:05:00,0,28183962,193026
OK,85,36,768,85,2014-10-01T23:10:00,0,28184411,193026
OK,85,36,768,85,2014-10-01T23:15:00,0,28184846,193026
OK,85,36,768,85,2014-10-01T23:20:00,0,28185294,193026
OK,85,36,768,85,2014-10-01T23:25:00,0,28185725,193026
OK,85,36,768,85,2014-10-01T23:30:00,0,28186117,193026
OK,85,36,768,85,2014-10-01T23:35:00,0,28186566,193026
OK,85,36,768,85,2014-10-01T23:40:00,0,28186964,193026
OK,85,36,768,85,2014-10-01T23:45:00,0,28187406,193026
OK,85,36,768,85,2014-10-01T23:50:00,0,28187855,193026
OK,85,36,768,85,2014-10-01T23:55:00,0,28188296,193026
OK,85,36,768,85,2014-10-02T00:00:00,0,28188732,193026
OK,85,36,768,85,2014-10-02T00:10:00,0,28189181,193026
OK,85,36,768,85,2014-10-02T00:20:00,0,28190052,193026
OK,85,36,768,85,2014-10-02T00:30:00,0,28190854,193026
OK,85,36,768,85,2014-10-02T00:35:00,0,28191303,193026
OK,85,36,768,85,2014-10-02T00:45:00,0,28192058,193026
OK,85,36,768,85,2014-10-02T00:50:00,0,28192938,193026
OK,85,36,768,85,2014-10-02T00:55:00,0,28193306,193026
OK,85,36,768,85,2014-10-02T01:00:00,0,28193751,193026
OK,85,36,768,85,2014-10-02T01:10:00,0,28194200,193026
OK,85,36,768,85,2014-10-02T01:15:00,0,28194649,193026
OK,85,36,768,85,2014-10-02T01:25:00,0,28195334,193026
OK,85,36,768,85,2014-10-02T01:30:00,0,28195783,193026
OK,85,36,768,85,2014-10-02T01:40:00,0,28196516,193026
OK,85,36,768,85,2014-10-02T01:50:00,0,28197388,193026
OK,85,36,768,85,2014-10-02T01:55:00,0,28197837,193026
OK,85,36,768,85,2014-10-02T02:00:00,0,28198285,193026
OK,85,36,768,85,2014-10-02T02:05:00,0,28198733,193026
OK,85,36,768,85,2014-10-02T02:10:00,0,28199553,193026
OK,85,36,768,85,2014-10-02T02:15:00,0,28199989,193026
OK,85,36,768,85,2014-10-02T02:20:00,0,28200433,193026
OK,85,36,768,85,2014-10-02T02:25:00,0,28200881,193026
OK,85,36,768,85,2014-10-02T02:30:00,0,28201313,193026
OK,85,36,768,85,2014-10-02T02:45:00,0,28202210,193026
OK,85,36,768,85,2014-10-02T02:50:00,0,28202656,193026
OK,85,36,768,85,2014-10-02T03:00:00,0,28203101,193026
OK,85,36,768,85,2014-10-02T03:10:00,0,28203984,193026
OK,85,36,768,85,2014-10-02T03:25:00,0,28204433,193026
OK,85,36,768,85,2014-10-02T03:35:00,0,28204882,193026
OK,85,36,768,85,2014-10-02T03:45:00,0,28205758,193026
OK,85,36,768,85,2014-10-02T03:55:00,0,28206589,193026
OK,85,36,768,85,2014-10-02T04:00:00,0,28207038,193026
OK,85,36,768,85,2014-10-02T04:10:00,0,28207906,193026
OK,85,36,768,85,2014-10-02T04:20:00,0,28208782,193026
OK,85,36,768,85,2014-10-02T04:25:00,0,28209231,193026
OK,86,35,768,86,2014-10-02T04:30:00,4,28209669,193026
OK,97,31,768,97,2014-10-02T04:35:00,1,28210118,193026
OK,97,31,768,97,2014-10-02T04:40:00,0,28210541,193026
OK,97,31,768,97,2014-10-02T04:45:00,0,28210990,193026
OK,97,31,768,97,2014-10-02T04:50:00,0,28211794,193026
OK,64,48,768,64,2014-10-02T05:00:00,0,28212237,193026
OK,91,33,768,91,2014-10-02T05:05:00,0,28212686,193026
OK,91,33,768,91,2014-10-02T05:10:00,0,28213115,193026
OK,97,31,768,97,2014-10-02T05:15:00,3,28213564,193026
OK,97,31,768,97,2014-10-02T05:20:00,0,28214002,193026
OK,116,26,768,116,2014-10-02T05:25:00,2,28214451,193026
OK,169,18,768,169,2014-10-02T05:30:00,1,28214864,193026
OK,121,25,768,121,2014-10-02T05:40:00,5,28215729,193026
OK,121,25,768,121,2014-10-02T05:45:00,1,28216178,193026
OK,121,25,768,121,2014-10-02T05:50:00,0,28216516,193026
OK,157,19,768,157,2014-10-02T05:55:00,10,28216957,193026
OK,151,20,768,151,2014-10-02T06:00:00,9,28217404,193026
OK,119,25,768,119,2014-10-02T06:05:00,2,28217853,193026
OK,90,34,768,90,2014-10-02T06:10:00,0,28218292,193026
OK,126,24,768,126,2014-10-02T06:15:00,7,28218741,193026
OK,117,26,768,117,2014-10-02T06:20:00,5,28219161,193026
OK,78,39,768,78,2014-10-02T06:30:00,4,28219983,193026
OK,85,36,768,85,2014-10-02T06:40:00,4,28220866,193026
OK,64,48,768,64,2014-10-02T06:45:00,1,28221314,193026
OK,92,33,768,92,2014-10-02T07:00:00,3,28222127,193026
OK,126,24,768,126,2014-10-02T07:10:00,1,28222576,193026
OK,126,24,768,126,2014-10-02T07:15:00,1,28223024,193026
OK,126,24,768,126,2014-10-02T07:20:00,0,28223890,193026
OK,67,45,768,67,2014-10-02T07:25:00,3,28224249,193026
OK,71,43,768,71,2014-10-02T07:35:00,2,28224694,193026
OK,47,65,768,47,2014-10-02T07:40:00,1,28225143,193026
OK,47,65,768,47,2014-10-02T07:50:00,0,28225914,193026
OK,47,65,768,47,2014-10-02T07:55:00,0,28226363,193026
OK,47,65,768,47,2014-10-02T08:00:00,0,28226804,193026
OK,93,33,768,93,2014-10-02T08:05:00,2,28227253,193026
OK,124,24,768,124,2014-10-02T08:10:00,0,28227668,193026
OK,69,44,768,69,2014-10-02T08:20:00,0,28228476,193026
OK,76,40,768,76,2014-10-02T08:25:00,1,28228925,193026
OK,76,40,768,76,2014-10-02T08:30:00,0,28229335,193026
OK,67,45,768,67,2014-10-02T08:40:00,1,28230134,193026
OK,67,45,768,67,2014-10-02T08:50:00,0,28230949,193026
OK,67,45,768,67,2014-10-02T08:55:00,0,28231396,193026
OK,67,45,768,67,2014-10-02T09:00:00,0,28231821,193026
OK,67,45,768,67,2014-10-02T09:10:00,0,28232612,193026
OK,84,36,768,84,2014-10-02T09:20:00,0,28233061,193026
OK,84,36,768,84,2014-10-02T09:25:00,0,28233509,193026
OK,84,36,768,84,2014-10-02T09:30:00,0,28233934,193026
OK,84,36,768,84,2014-10-02T09:40:00,0,28234716,193026
OK,85,36,768,85,2014-10-02T09:50:00,0,28235592,193026
OK,85,36,768,85,2014-10-02T09:55:00,0,28236041,193026
OK,85,36,768,85,2014-10-02T10:00:00,0,28236482,193026
OK,48,64,768,48,2014-10-02T10:10:00,3,28237333,193026
OK,48,64,768,48,2014-10-02T10:15:00,0,28237781,193026
OK,65,47,768,65,2014-10-02T10:20:00,3,28238230,193026
OK,65,47,768,65,2014-10-02T10:25:00,3,28238677,193026
OK,65,47,768,65,2014-10-02T10:30:00,0,28239118,193026
OK,113,27,768,113,2014-10-02T10:40:00,1,28239997,193026
OK,113,27,768,113,2014-10-02T10:45:00,1,28240445,193026
OK,113,27,768,113,2014-10-02T10:50:00,0,28240890,193026
OK,79,38,768,79,2014-10-02T10:55:00,6,28241339,193026
OK,93,33,768,93,2014-10-02T11:00:00,2,28241771,193026
OK,74,41,768,74,2014-10-02T11:10:00,0,28242615,193026
OK,74,41,768,74,2014-10-02T11:15:00,0,28243064,193026
OK,74,41,768,74,2014-10-02T11:20:00,0,28243513,193026
OK,74,41,768,74,2014-10-02T11:25:00,0,28243838,193026
OK,74,41,768,74,2014-10-02T11:30:00,0,28244705,193026
OK,98,31,768,98,2014-10-02T11:40:00,0,28245154,193026
OK,102,30,768,102,2014-10-02T11:50:00,2,28246009,193026
OK,108,28,768,108,2014-10-02T12:00:00,1,28246895,193026
OK,108,28,768,108,2014-10-02T12:05:00,1,28247343,193026
OK,86,35,768,86,2014-10-02T12:15:00,5,28248220,193026
OK,89,34,768,89,2014-10-02T12:20:00,1,28248669,193026
OK,89,34,768,89,2014-10-02T12:25:00,0,28249540,193026
OK,89,34,768,89,2014-10-02T12:30:00,0,28249970,193026
OK,86,35,768,86,2014-10-02T12:35:00,0,28250356,193026
OK,71,43,768,71,2014-10-02T12:45:00,4,28251136,193026
OK,79,38,768,79,2014-10-02T13:20:00,2,28251681,193026
OK,117,26,768,117,2014-10-02T13:30:00,3,28252265,193026
OK,147,20,768,147,2014-10-02T13:35:00,1,28252707,193026
OK,147,20,768,147,2014-10-02T13:40:00,0,28253124,193026
OK,106,29,768,106,2014-10-02T13:50:00,0,28253573,193026
OK,65,47,768,65,2014-10-02T13:55:00,1,28254299,193026
OK,78,39,768,78,2014-10-02T14:10:00,1,28254876,193026
OK,88,34,768,88,2014-10-02T14:20:00,1,28255325,193026
OK,88,34,768,88,2014-10-02T14:25:00,0,28256202,193026
OK,84,36,768,84,2014-10-02T14:30:00,3,28256630,193026
OK,84,36,768,84,2014-10-02T14:35:00,2,28257079,193026
OK,53,58,768,53,2014-10-02T14:40:00,1,28257520,193026
OK,53,58,768,53,2014-10-02T14:45:00,1,28257968,193026
OK,60,51,768,60,2014-10-02T14:50:00,1,28258401,193026
OK,60,51,768,60,2014-10-02T14:55:00,1,28258847,193026
OK,67,45,768,67,2014-10-02T15:00:00,2,28259296,193026
OK,79,38,768,79,2014-10-02T15:05:00,3,28259743,193026
OK,73,42,768,73,2014-10-02T15:10:00,5,28260177,193026
OK,75,40,768,75,2014-10-02T15:15:00,3,28260625,193026
OK,75,40,768,75,2014-10-02T15:20:00,1,28261065,193026
OK,75,40,768,75,2014-10-02T15:25:00,0,28261447,193026
OK,75,40,768,75,2014-10-02T15:30:00,0,28261877,193026
OK,70,43,768,70,2014-10-02T15:35:00,4,28262324,193026
OK,55,55,768,55,2014-10-02T15:40:00,1,28262770,193026
OK,55,55,768,55,2014-10-02T15:45:00,0,28263208,193026
OK,55,55,768,55,2014-10-02T15:50:00,0,28263649,193026
OK,55,55,768,55,2014-10-02T15:55:00,0,28264051,193026
OK,55,55,768,55,2014-10-02T16:00:00,0,28264500,193026
OK,73,42,768,73,2014-10-02T16:05:00,0,28264938,193026
OK,73,42,768,73,2014-10-02T16:10:00,0,28265378,193026
OK,73,42,768,73,2014-10-02T16:15:00,0,28265774,193026
OK,94,32,768,94,2014-10-02T16:20:00,3,28266223,193026
OK,133,23,768,133,2014-10-02T16:30:00,1,28266672,193026
OK,133,23,768,133,2014-10-02T16:35:00,1,28267444,193026
OK,133,23,768,133,2014-10-02T16:40:00,0,28267893,193026
OK,82,37,768,82,2014-10-02T16:45:00,2,28268335,193026
OK,82,37,768,82,2014-10-02T16:50:00,0,28268784,193026
OK,94,32,768,94,2014-10-02T16:55:00,1,28269233,193026
OK,58,53,768,58,2014-10-02T17:00:00,1,28269668,193026
OK,58,53,768,58,2014-10-02T17:05:00,1,28270117,193026
OK,58,53,768,58,2014-10-02T17:10:00,0,28270551,193026
OK,58,53,768,58,2014-10-02T17:15:00,0,28271000,193026
OK,122,25,768,122,2014-10-02T17:20:00,1,28271430,193026
OK,122,25,768,122,2014-10-02T17:25:00,1,28271878,193026
OK,96,32,768,96,2014-10-02T17:30:00,1,28272314,193026
OK,96,32,768,96,2014-10-02T17:35:00,0,28272755,193026
OK,96,32,768,96,2014-10-02T17:40:00,0,28273203,193026
OK,72,42,768,72,2014-10-02T17:45:00,0,28273649,193026
OK,74,41,768,74,2014-10-02T17:55:00,1,28274098,193026
OK,74,41,768,74,2014-10-02T18:00:00,0,28274872,193026
OK,74,41,768,74,2014-10-02T18:05:00,0,28275311,193026
OK,74,41,768,74,2014-10-02T18:10:00,0,28275756,193026
OK,74,41,768,74,2014-10-02T18:15:00,0,28276202,193026
OK,74,41,768,74,2014-10-02T18:20:00,0,28276598,193026
OK,74,41,768,74,2014-10-02T18:30:00,0,28277047,193026
OK,74,41,768,74,2014-10-02T18:40:00,0,28277496,193026
OK,74,41,768,74,2014-10-02T18:45:00,0,28278293,193026
OK,74,41,768,74,2014-10-02T19:00:00,0,28278742,193026
OK,74,41,768,74,2014-10-02T19:05:00,0,28279191,193026
OK,74,41,768,74,2014-10-02T19:10:00,0,28279636,193026
OK,47,65,768,47,2014-10-02T19:15:00,0,28280077,193026
OK,47,65,768,47,2014-10-02T19:20:00,0,28280524,193026
OK,47,65,768,47,2014-10-02T19:25:00,0,28280928,193026
OK,47,65,768,47,2014-10-02T19:35:00,0,28281826,193026
OK,87,35,768,87,2014-10-02T19:40:00,2,28282257,193026
OK,83,37,768,83,2014-10-02T19:45:00,0,28282706,193026
OK,83,37,768,83,2014-10-02T19:50:00,0,28283153,193026
OK,83,37,768,83,2014-10-02T19:55:00,0,28283583,193026
OK,83,37,768,83,2014-10-02T20:00:00,0,28283953,193026
OK,83,37,768,83,2014-10-02T20:10:00,0,28284402,193026
OK,83,37,768,83,2014-10-02T20:15:00,0,28285185,193026
OK,83,37,768,83,2014-10-02T20:20:00,0,28285621,193026
OK,83,37,768,83,2014-10-02T20:25:00,0,28286036,193026
OK,95,32,768,95,2014-10-02T20:35:00,0,28286888,193026
OK,95,32,768,95,2014-10-02T20:40:00,0,28287319,193026
OK,95,32,768,95,2014-10-02T20:45:00,0,28287650,193026
OK,109,28,768,109,2014-10-03T22:35:00,0,28291599,193026
OK,109,28,768,109,2014-10-03T22:40:00,0,28292048,193026
OK,109,28,768,109,2014-10-03T22:45:00,0,28292497,193026
OK,109,28,768,109,2014-10-03T22:50:00,0,28292943,193026
OK,109,28,768,109,2014-10-03T22:55:00,0,28293392,193026
OK,109,28,768,109,2014-10-03T23:00:00,0,28293841,193026
OK,109,28,768,109,2014-10-03T23:05:00,0,28294270,193026
OK,109,28,768,109,2014-10-03T23:10:00,0,28294706,193026
OK,109,28,768,109,2014-10-03T23:15:00,0,28295146,193026
OK,67,45,768,67,2014-10-03T23:25:00,1,28295595,193026
OK,67,45,768,67,2014-10-03T23:30:00,0,28296038,193026
OK,67,45,768,67,2014-10-03T23:35:00,0,28296487,193026
OK,67,45,768,67,2014-10-03T23:40:00,0,28296890,193026
OK,67,45,768,67,2014-10-03T23:45:00,0,28297317,193026
OK,67,45,768,67,2014-10-03T23:50:00,0,28297766,193026